Regional Weather Roundup
Issued by NWS

Home | Current Version | Previous Version | Text Only | Print | Product List | Glossary On
Versions: 1 2 3 4 5 6 7 8 9 10 11 12 13 14 15 16 17 18 19 20 21 22 23 24 25 26 27 28 29 30 31 32 33 34 35 36 37 38 39 40 41 42 43 44 45 46 47 48 49 50
000
ASUS44 KOUN 051110
RWROK

WEATHER ROUNDUP FOR OKLAHOMA
NATIONAL WEATHER SERVICE NORMAN OK
500 AM CST THU MAR 05 2015

NOTE: "FAIR" INDICATES FEW OR NO CLOUDS BELOW 12,000 FEET WITH NO
      SIGNIFICANT WEATHER AND/OR OBSTRUCTIONS TO VISIBILITY.

OKZ001>007-009>012-014-015-017-051200-
NORTHWEST OKLAHOMA AND THE PANHANDLE

CITY           SKY/WX    TMP DP  RH WIND       PRES   REMARKS
GAGE           CLEAR     13  10  88 W7        30.45R WCI   3
ENID/WOODRING  CLEAR     14  14 100 CALM      30.49R
$$

OKZ016-021>023-033>039-044-045-051200-
SOUTHWEST OKLAHOMA

CITY           SKY/WX    TMP DP  RH WIND       PRES   REMARKS
LAWTON/REGL    CLEAR     12   8  84 NW3       30.52R
LAWTON/FT SILL CLEAR     18  12  77 NW1       30.50R
FREDERICK      PTCLDY    19  14  81 NW10      30.50R WCI   7
HOBART         PTCLDY     9   6  88 NW7       30.51R WCI  -2
ALTUS AFB      PTCLDY    20  15  83 NW9       30.52R WCI   9
$$

OKZ018>020-024>031-051200-
CENTRAL OKLAHOMA

CITY           SKY/WX    TMP DP  RH WIND       PRES   REMARKS
OKLAHOMA CITY  PTCLDY    13   8  81 NW5       30.48R WCI   5
OKC/WILEY POST PTCLDY    10   5  80 CALM      30.50R
OKC/TINKER AFB PTCLDY    15  11  85 NW5       30.47R WCI   7
STILLWATER     CLEAR     12   8  84 NW6       30.50R WCI   3
GUTHRIE        FAIR      11   6  81 SW3       30.50R
$$

OKZ008-013-054>072-051200-
NORTHEAST OKLAHOMA

CITY           SKY/WX    TMP DP  RH WIND       PRES   REMARKS
TULSA          PTCLDY    20  12  71 NW5       30.50R WCI  13
TULSA/JONES    CLEAR     18  10  71 CALM      30.52R
PONCA CITY     CLEAR     11   7  84 CALM      30.50R
BARTLESVILLE   CLEAR     12   7  80 SE3       30.53R
MUSKOGEE       CLEAR     18  12  77 NW6       30.52R WCI  10
$$

OKZ032-040>043-046>053-073>077-051200-
SOUTH CENTRAL/SOUTHEAST OKLAHOMA

CITY           SKY/WX    TMP DP  RH WIND       PRES   REMARKS
ARDMORE/DWNTWN CLEAR     23  18  80 N3        30.49R
MCALESTER      PTCLDY    21  14  74 N7        30.48R WCI  12
$$




USA.gov is the U.S. government's official web portal to all federal, state and local government web resources and services.